Location: Mount Graham
(32.7016°N, 109.8912°W)
Time: 01:29:49
(UTC-07:00)

Daily predictions for brighter satellites

Satellite Brightness Start Highest point End
(mag) Time Altitude Azimuth Time Altitude Azimuth Time Altitude Azimuth
SL-16 R/B 4.3 02:05:49 24° ENE 02:06:36 25° ENE 02:11:28 10° NNE
CZ-2D R/B 4.0 02:23:56 10° NNE 02:26:43 26° ENE 02:26:43 26° ENE
Cosmos 2369 Rocket 3.9 02:34:05 10° N 02:38:56 29° ENE 02:41:02 23° E
ARIANE 5 R/B 3.8 02:52:55 10° NNE 02:56:01 37° N 02:56:01 37° N
Resurs 1-4 Rocket 2.9 03:01:00 10° NNE 03:04:41 47° NNE 03:04:41 47° NNE
USA 234 3.9 03:13:21 10° NNE 03:19:23 41° NW 03:19:56 40° NW
Okean O Rocket 3.0 03:15:33 10° NNE 03:19:37 34° E 03:19:41 34° E
Cosmos 2315 Rocket 3.8 03:24:15 83° WSW 03:24:22 84° W 03:30:40 10° N
CZ-2D R/B 4.4 03:26:02 10° NNE 03:29:17 48° NNE 03:29:17 48° NNE
CZ-4C R/B 4.5 03:31:42 11° NW 03:32:02 11° NW 03:33:34 10° NNW
ATLAS 5 CENTAUR R/B 2.2 03:33:05 58° N 03:33:05 58° N 03:37:21 10° NNE
SL-27 R/B 4.3 03:34:00 31° ENE 03:34:00 31° ENE 03:36:40 10° NE
CZ-3 R/B 4.2 02:31:10 10° W 03:33:43 70° SSW 03:45:45 10° ESE
IRS-1C Rocket 4.3 03:35:40 10° NNE 03:40:56 69° ESE 03:42:15 49° SSE
MOS 1-B 4.4 03:41:51 10° N 03:47:30 57° WNW 03:47:54 55° W
SL-16 R/B 3.0 03:50:55 40° WNW 03:50:55 40° WNW 03:55:44 10° NNW
NOSS 3-3 (A) 4.4 03:42:37 10° NW 03:50:08 62° WSW 03:57:59 10° SSE
NOSS 3-3 (C) 4.4 03:42:43 10° NW 03:50:14 62° WSW 03:58:06 10° SSE
Meteor 2-11 Rocket 4.4 03:52:03 53° WSW 03:52:48 56° W 03:58:45 10° N
Atlas Centaur 2 3.2 03:52:50 23° SSE 03:52:58 23° SSE 03:56:56 10° E
CENTAUR R/B 2.3 03:52:48 51° SW 03:54:27 82° WNW 04:01:06 10° NNE
ADEOS Rocket 4.5 03:51:31 10° NNE 03:58:57 47° E 04:06:15 10° S
Cosmos 1862 Rocket 3.8 04:00:17 51° NW 04:00:17 51° NW 04:04:04 10° N
ARGOS Delta rocket 3.6 03:56:17 10° N 04:00:30 59° WNW 04:00:30 59° WNW
MOZ.5/SAFIR/RUBIN 5/SL-8 3.7 03:59:30 16° SSE 04:03:10 84° ENE 04:07:49 10° N
COSMOS 2406 3.2 04:01:21 33° SSW 04:04:03 80° ESE 04:09:51 10° NNE
CZ-2D R/B 3.4 04:04:29 10° NNW 04:08:03 23° WNW 04:08:03 23° WNW
Cosmos 1455 4.1 04:15:25 18° NW 04:15:25 18° NW 04:16:58 10° NNW
Nadezhda 1 Rocket 4.0 04:08:31 10° S 04:14:40 82° E 04:21:00 10° N
Okean 1-7 4.1 04:12:37 10° SSE 04:16:41 44° E 04:20:48 10° NNE
OAO 3 Copernicus 4.3 04:14:43 33° WNW 04:17:03 83° N 04:22:06 10° E
PSLV R/B 4.4 04:13:52 10° N 04:17:04 38° WNW 04:17:04 38° WNW
Cosmos 389 Rocket 3.7 04:19:52 28° NW 04:19:52 28° NW 04:22:07 10° NNW
Cosmos 407 Rocket 4.3 04:16:59 10° S 04:21:57 50° ESE 04:27:01 10° NNE
CZ-4B DEB 4.1 04:16:54 10° N 04:22:20 70° WNW 04:25:59 21° SSW
Cosmos 2369 Rocket 2.9 04:18:00 10° NW 04:22:32 30° W 04:22:32 30° W
Cosmos 1302 Rocket 4.4 04:20:43 10° NW 04:25:30 37° W 04:28:13 22° SSW
CZ-4B R/B 3.2 04:20:24 10° N 04:25:36 58° WNW 04:28:39 24° SW
Cosmos 1733 Rocket 3.9 04:27:17 10° NNW 04:30:57 28° W 04:30:57 28° W
Cosmos 1782 Rocket 3.7 04:34:00 10° N 04:38:20 74° E 04:42:39 10° S
COSMOS 2487 2.8 04:38:04 11° S 04:41:29 66° ESE 04:45:04 10° NNE
Cosmos 2074 Rocket 4.1 04:37:10 10° NNW 04:43:10 52° W 04:49:10 10° SSW
Cosmos 2154 Rocket 4.3 04:38:24 10° N 04:44:44 75° E 04:51:04 10° S
Cosmos 2184 Rocket 4.2 04:40:04 10° NNW 04:46:12 51° W 04:52:17 10° SSW
SeaSat 1 3.0 04:42:48 10° S 04:47:14 33° WSW 04:51:40 10° NW
Meteor 1-31 Rocket 3.7 04:44:16 10° NNE 04:47:57 47° E 04:51:38 10° S
Cosmos 1943 Rocket 2.4 04:43:57 10° NNW 04:49:21 46° WSW 04:54:40 10° S
Geosat 4.3 04:47:49 10° NNE 04:52:38 48° WNW 04:56:47 14° SW
Cosmos 2221 Rocket 4.0 04:50:04 13° SSW 04:53:38 40° W 04:57:50 10° N
Cosmos 1408 3.2 04:51:00 10° NNW 04:54:28 36° W 04:57:55 10° SSW
Okean O Rocket 3.2 04:52:45 10° NNW 04:55:41 17° WNW 04:57:09 15° W
Cosmos 1825 2.8 04:52:51 10° NNW 04:56:18 34° W 04:59:45 10° SSW
Cosmos 1908 Rocket 4.2 04:55:01 10° NNW 04:58:55 32° W 05:02:47 10° SSW
Cosmos 1862 4.1 04:55:46 10° NNW 04:59:15 30° W 05:02:43 10° SSW
Okean-O 2.8 04:55:07 10° N 04:59:25 51° WNW 05:03:43 10° SSW
ADEOS II 2.1 04:56:58 10° N 05:02:09 61° WNW 05:07:19 10° SSW
GPS 2-05 Rocket1 2.8 05:00:14 17° WSW 05:02:38 66° SSE 05:05:52 10° ENE
Thor Agena Rocket 3.9 04:58:25 10° S 05:03:13 41° W 05:08:06 10° NNW
Cosmos 2341 Rocket 4.2 04:58:12 10° N 05:04:31 83° E 05:10:52 10° S
Cosmos 1190 Rocket 4.4 05:01:47 10° SW 05:06:43 44° WNW 05:11:41 10° N
Feng Yun 1-1 Rocket 4.5 05:10:30 10° N 05:15:38 47° WNW 05:20:48 10° SW
Cosmos 2285 Rocket 4.3 05:10:01 10° NNW 05:16:05 45° W 05:22:04 10° S
MOS 1 Rocket 3.0 05:17:40 10° N 05:21:57 78° WNW 05:26:14 10° SSW
Cosmos 1992 Rocket 4.5 05:17:15 10° NW 05:22:03 38° W 05:26:50 10° SSW
Cosmos 1656 Rocket 3.7 05:17:17 10° NNW 05:22:32 52° WSW 05:27:45 10° S
Meteor 1-14 Rocket 4.4 05:20:17 10° NNW 05:26:02 60° W 05:31:51 10° S
Cosmos 2151 Rocket 3.6 05:22:10 10° N 05:26:34 90° NNW 05:30:57 10° S
Cosmos 1954 Rocket 4.0 05:21:31 10° SSW 05:26:38 67° WNW 05:31:49 10° N
Centaur D-1A AC-31 2.0 05:20:42 10° W 05:27:43 43° SSW 05:30:58 10° ESE
BREEZE-M DEB (TANK) 4.2 05:08:51 10° NW 05:28:46 85° SW 05:33:22 10° SE
